Weather History for KTUP - March, 2013

Change the Weather History Date:

Saturday, March 9, 2013

  Actual Average Record
Temperature  
Mean Temperature 58 °F 52 °F  
Max Temperature 73 °F 63 °F 82 °F (1974)
Min Temperature 42 °F 41 °F 16 °F (1996)
Degree Days  
Heating Degree Days 7 13  
Month to date heating degree days 193 128  
Since 1 July heating degree days 2419 2559  
Cooling Degree Days 0 0  
Month to date cooling degree days 0 0  
Year to date cooling degree days 6 2  
Growing Degree Days 6 (Base 50)    
Moisture  
Dew Point 34 °F    
Average Humidity 51    
Maximum Humidity 76    
Minimum Humidity 26    
Precipitation  
Precipitation 0.00 in 0.15 in 2.42 in (1994)
Month to date precipitation 0.18 1.52  
Year to date precipitation 12.61 10.96  
Snow  
Snow 0.00 in 0.00 in T in (1998)
Month to date snowfall T 0.1  
Since 1 July snowfall T 1.9  
Snow Depth 0.00 in    
Sea Level Pressure  
Sea Level Pressure 30.11 in    
Wind  
Wind Speed 8 mph (South)    
Max Wind Speed 23 mph    
Max Gust Speed 29 mph    
Visibility 10 miles    
Events      
T = Trace of Precipitation, MM = Missing Value Source: NWS Daily Summary

Daily Weather History Graph

Daily Weather History Graph

Search for Another Location

Airport or City:

Trip Planner

Search our weather history database for the weather conditions in past years. The results will help you decide how hot, cold, wet, or windy it might be!

Date:

Astronomy

Mar. 09, 2013 Rise Set
Actual Time 6:13 AM CST 5:58 PM CST
Civil Twilight 5:48 AM CST 6:23 PM CST
Nautical Twilight 5:19 AM CST 6:52 PM CST
Astronomical Twilight 4:50 AM CST 7:21 PM CST
Moon 4:32 AM CST (3/9) 4:03 PM CST (3/9)
Length of Visible Light 12h 34m
Length of Day
11h 44m
Waning Crescent, 5% of the Moon is Illuminated
Mar 9
Waning Crescent
Mar 11
New
Mar 19
First Quarter
Mar 27
Full
Apr 2
Last Quarter

Hourly Weather History & Observations

Time (CST) Temp. Dew Point Humidity Pressure Visibility Wind Dir Wind Speed Gust Speed Precip Events Conditions
12:53 AM 44.1 °F 35.1 °F 71% 30.20 in 10.0 mi Calm Calm - N/A   Clear
1:53 AM 43.0 °F 35.1 °F 74% 30.19 in 10.0 mi Calm Calm - N/A   Clear
2:53 AM 44.1 °F 35.1 °F 71% 30.16 in 10.0 mi Calm Calm - N/A   Clear
3:53 AM 44.1 °F 37.0 °F 76% 30.17 in 10.0 mi Calm Calm - N/A   Clear
4:53 AM 44.1 °F 37.0 °F 76% 30.18 in 10.0 mi Calm Calm - N/A   Clear
5:53 AM 46.9 °F 33.1 °F 59% 30.17 in 10.0 mi South 6.9 mph - N/A   Overcast
6:53 AM 51.1 °F 28.9 °F 43% 30.19 in 10.0 mi SW 8.1 mph - N/A   Clear
7:53 AM 53.1 °F 28.9 °F 40% 30.22 in 10.0 mi SW 4.6 mph - N/A   Clear
8:53 AM 54.0 °F 30.0 °F 40% 30.23 in 10.0 mi SSW 8.1 mph - N/A   Clear
9:53 AM 59.0 °F 28.9 °F 32% 30.20 in 10.0 mi South 12.7 mph 20.7 mph N/A   Clear
10:53 AM 63.0 °F 30.9 °F 30% 30.18 in 10.0 mi SSW 13.8 mph - N/A   Clear
11:53 AM 64.9 °F 32.0 °F 29% 30.15 in 10.0 mi SSW 13.8 mph - N/A   Clear
12:53 PM 70.0 °F 33.1 °F 26% 30.10 in 10.0 mi South 13.8 mph - N/A   Clear
1:53 PM 70.0 °F 33.1 °F 26% 30.08 in 10.0 mi South 13.8 mph 26.5 mph N/A   Clear
2:53 PM 69.1 °F 33.1 °F 26% 30.06 in 10.0 mi SSW 11.5 mph - N/A   Clear
3:53 PM 72.0 °F 36.0 °F 27% 30.05 in 10.0 mi SSW 12.7 mph - N/A   Clear
4:53 PM 66.9 °F 35.1 °F 31% 30.04 in 10.0 mi South 8.1 mph - N/A   Clear
5:53 PM 66.9 °F 33.1 °F 28% 30.02 in 10.0 mi South 10.4 mph - N/A   Clear
6:53 PM 66.0 °F 35.1 °F 32% 30.02 in 10.0 mi South 8.1 mph - N/A   Clear
7:53 PM 64.9 °F 36.0 °F 34% 30.01 in 10.0 mi SSE 10.4 mph - N/A   Clear
8:53 PM 64.0 °F 36.0 °F 35% 30.01 in 10.0 mi South 11.5 mph 19.6 mph N/A   Clear
9:53 PM 62.1 °F 37.0 °F 39% 30.01 in 10.0 mi South 9.2 mph - N/A   Clear
10:53 PM 62.1 °F 37.9 °F 41% 30.00 in 10.0 mi SSW 9.2 mph - N/A   Clear
11:53 PM 62.1 °F 39.9 °F 44% 29.99 in 10.0 mi South 9.2 mph 18.4 mph N/A   Partly Cloudy